Preview of NWS' New Version of Forecast
This preview is not operational and should not be used for support decisions.

Regional Weather Roundup (RWR)

Issued by National Weather Service (NWS)

                            
000
ASUS45 KBOI 231310
RWRID 

IDAHO REGIONAL WEATHER ROUNDUP
NATIONAL WEATHER SERVICE BOISE ID
600 AM MST SAT FEB 23 2019

NOTE: "FAIR" INDICATES FEW OR NO CLOUDS BELOW 12000 FEET
WITH NO SIGNIFICANT WEATHER AND/OR OBSTRUCTIONS TO VISIBILITY

IDZ012-014-231400-
SOUTHWEST IDAHO

  
CITY           SKY/WX    TMP DP  RH WIND       PRES   REMARKS
BOISE          FLURRIES  30  19  63 SE15      30.06R WCI  19          
CALDWELL       CLOUDY    32  21  64 SE15      30.06R WCI  22          
MOUNTAIN HOME  CLOUDY    27  27 100 E12       30.07R WCI  17          
$$

IDZ016-017-231400-
SOUTHCENTRAL IDAHO

  
CITY           SKY/WX    TMP DP  RH WIND       PRES   REMARKS
BURLEY         CLOUDY    22  10  60 S17       30.05S WCI   8          
JEROME         CLOUDY    24  12  60 SE7       30.06S WCI  16          
TWIN FALLS     CLOUDY    25  11  55 S15       30.04S WCI  13          
$$

IDZ019>023-231400-
SOUTHEAST IDAHO

  
CITY           SKY/WX    TMP DP  RH WIND       PRES   REMARKS
IDAHO FALLS    CLOUDY    12   8  84 CALM      30.06S                  
POCATELLO      CLOUDY    22  12  65 SW3       30.07R                  
REXBURG        CLOUDY    14  10  84 W6        30.04R WCI   5          
$$

IDZ006-010-011-018-031-032-231400-
CENTRAL IDAHO MOUNTAINS

  
CITY           SKY/WX    TMP DP  RH WIND       PRES   REMARKS
MCCALL         LGT SNOW  19  15  84 CALM      29.92R FOG              
HAILEY         CLOUDY     9   3  78 NW7       30.03S WCI  -3          
STANLEY          N/A     11   6  81 CALM      29.91R                  
SALMON         CLOUDY    17   9  70 S3        30.00R                  
CHALLIS        CLOUDY    12   5  73 W3        29.94R                  
$$

IDZ002-004-006-007-026-231400-
NORTHERN IDAHO

  
CITY           SKY/WX    TMP DP  RH WIND       PRES   REMARKS
LEWISTON       MOCLDY    28  26  92 S6        30.03R WCI  22          
LOWELL         NOT AVBL                                               
COEUR D'ALENE  NOT AVBL                                               
MULLAN PASS    FLURRIES  15  11  83 VRB5      29.78R WCI   8          
$$